Back to catalog

COSMOS 1823 DEB

AliveLEO
NORAD 18753·DEBRIS·🇷🇺 Russia

Launched Feb 20, 1987 from Plesetsk Cosmodrome

Loading…

Next Passes (next 24 hours)

TLE

FreshSource: Space-Track

Epoch: Sep 14, 2026, 05:45 UTC

1 18753U 87020AE  26257.23996612  .00000123  00000-0  98062-3 0  9995
2 18753  73.4499 355.8850 0025125 269.5259 115.4592 12.45861724760043

Track COSMOS 1823 DEB in real time with AllMySat

Download on the App Store